COSMOS 1754

Satellite information

Favourite Embed

Satellite Type and Status

PAYLOADIN ORBIT

Key statistics

Satellite COSMOS 1754 at a glance.

Uptime

14436

Days in orbit

Revolutions

≈ 12.5

Per day

Orbit

LEO

Low Earth Orbit

Inclination

74.0

Latest

Satellite identification and parameters

Extended collection of information and parameters for COSMOS 1754.

Object identification

Identified? True

Debris? False

Object name: COSMOS 1754

International designator: 1986-042G

Object number (NORAD): 16764

Object ID (CCSDS): 16764

Country: COMMONWEALTH OF INDEPENDENT STATES (CIS)

Current information (Y/N): Y

RCS size: MEDIUM

Orbital parameters

Period: 114.96 minutes

Inclination: 74.0172 deg

SMA: 7831.743 km

Apoapsis: 1470.155 km

Periapsis: 1437.062 km

RAAN: 115.3332 deg

Eccentricy: 0.00211273

Argument of periapsis: 291.1602 deg

Mean anomaly: 177.041 deg

Mean motion: 12.52607786 rev/day

Mean motion (dot): 0.00000003 rev/day2

B* drag term: 0.00012283479 1/REarth

Two-line elements (TLE)

Creation date: Dec. 14, 2025, 3:07 a.m.

Reference frame: TEME

Reference center: EARTH

Epoch: Dec. 13, 2025, 4:48 p.m. UTC

TLE line 0: 0 COSMOS 1754

TLE line 1: 1 16764U 86042G 25347.70030553 .00000003 00000-0 12283-3 0 9990

TLE line 2: 2 16764 74.0172 115.3332 0021127 291.1602 177.0410 12.52607786631867

Live tracking on map

Real-time ground track for satellite COSMOS 1754.

In-orbit conjunctions

A list of the most updated potential collisions computed for object COSMOS 1754.

Target Orbit TCA Probability of collision Miss distance Type
THORAD DELTA 1 DEB SSO 2025-02-06 12:48:03 0.001143837 71.0 (m) DEBRIS
COSMOS 1362 LEO 2025-01-28 06:54:36 0.01018084 62.0 (m) PAYLOAD
FENGYUN 1C DEB SSO 2024-06-09 18:44:45 0.0001492567 579.0 (m) DEBRIS

Associated space launch

Military communications satellites

COSMOS 1754 was lifted into orbit during the mission ‘Kosmos-3M | Strela-1M 305-312’, on board a Kosmos-3M space rocket.

The launch took place on June 6, 1986, 3:57 a.m. from 132/1 (132L).

For more information about the launch, click the button.

Launch to space Kosmos-3M | Strela-1M 305-312
Kosmos-3M | Strela-1M 305-312

Agency: N/A

Status: Launch Successful

Launch date: June 6, 1986, 3:57 a.m. UTC

Rocket: Kosmos-3M

Launch pad: 132/1 (132L)

Location: Plesetsk Cosmodrome, Russian Federation

...

Latest news about this satellite

There are no fresh news available about this satellite. Check back as we update our databases every day.


Newsletter sign-up

Weekly statistics, charts and insights to help you stay on top of the space industry.